Вернуться в каталог

FENGYUN 1C DEB

АктивенSSO
NORAD 30062·DEBRIS·🇨🇳 China

Запущен May 10, 1999 с Taiyuan Satellite Launch Center

Loading…

Ближайшие Пролёты (ближайшие 24 часа)

TLE

СвежийSource: Space-Track

Эпоха: Sep 14, 2026, 06:06 UTC

1 30062U 99025PP  26257.25478439  .00000466  00000-0  29903-3 0  9992
2 30062  98.7796 263.6095 0048597 353.3497  67.5177 14.07432725  7800

Отслеживайте FENGYUN 1C DEB в реальном времени с AllMySat

Download on the App Store